Tracking 26922 objects as of 29-Jan-2023
HD Live streaming from Space Station
objects crossing your sky now

SL-12 R/B(AUX MOTOR)

Track SL-12 R/B(AUX MOTOR) now!
10-day predictions


NORAD ID: 32280
Int'l Code: 2007-052F
Perigee: 774.4 km
Apogee: 18,840.1 km
Inclination: 65.4 °
Period: 341.3 minutes
Semi major axis: 16178 km
RCS: 0.553 m2 (medium)
Launch date: October 26, 2007
Source: Commonwealth of Independent States (former USSR) (CIS)
Launch site: TYURATAM MISSILE AND SPACE COMPLEX (TTMTR)

Note: This is a ROCKET BODY
Your satellite tracking list
Your tracking list is empty




NASA's NSSDC Master Catalog

Two Line Element Set (TLE):
1 32280U 07052F   23028.93578138 -.00000036  00000-0  54783-3 0  9998
2 32280  65.4129  20.7768 5583315 285.0098  22.0521  4.21894992235400
Source of the keplerian elements: AFSPC